FLOCK 2K-11 (42894 NORAD) Tracking and Keplerian Element Data

This shows tracking and keplerian element data for the satellite.

Feedback or suggestion? Click here.




ElementValue
Catalog42894
NameFLOCK 2K-11
Epoch Orbit15250
Epoch Day94.06825926
Epoch Year2020
RAAN326.248
Inclination96.9044
Eccentricity0.000937
Argument of Perigee225.8352
Mean Anonmoly134.2127
Mean Motion15.40850028
Decay Rate2.674E-05
L11 42894U 17042BX 20094.06825926 .00002674 00000-0 66978-4 0 9993
L22 42894 96.9044 326.2480 0009370 225.8352 134.2127 15.40850028152508

Live tracking and technical data element details for FLOCK 2K-11 (NORAD 42894). FLOCK 2K-11 can be tracked NOW for your location showing map with azimuth and elevation plus other details from your city location.

Track the satellite on the map from your city or location and see movement details for azimuth, elevation, latitude, longitude, range, height, and movement on the map or in text.







IsCatalogInMostPopularTable: catalog: 42894, numindb: 404
Update: records affected: 1



GetName: 42894 FLOCK 2K-11

Hit Count: updated at: Thu, 09 Apr 2020 17:51:39 GMT